TimeCST,TemperatureF,Dew PointF,Humidity,Sea Level PressureIn,VisibilityMPH,Wind Direction,Wind SpeedMPH,Gust SpeedMPH,PrecipitationIn,Events,Conditions,WindDirDegrees,DateUTC
12:15 AM,32.0,26.6,80,30.06,10.0,WNW,3.5,-,N/A,,Clear,290,2013-02-23 06:15:00
12:35 AM,32.0,26.6,80,30.08,10.0,Calm,Calm,-,N/A,,Clear,0,2013-02-23 06:35:00
12:55 AM,32.0,26.2,79,30.08,10.0,Calm,Calm,-,N/A,,Clear,0,2013-02-23 06:55:00
1:15 AM,30.7,26.4,84,30.07,10.0,Calm,Calm,-,N/A,,Clear,0,2013-02-23 07:15:00
1:35 AM,31.1,26.6,83,30.06,10.0,Calm,Calm,-,N/A,,Clear,0,2013-02-23 07:35:00
1:55 AM,29.8,26.2,86,30.06,10.0,NW,4.6,-,N/A,,Clear,320,2013-02-23 07:55:00
2:15 AM,30.2,25.7,83,30.06,10.0,NW,4.6,-,N/A,,Clear,310,2013-02-23 08:15:00
2:35 AM,30.2,25.7,83,30.05,10.0,NW,4.6,-,N/A,,Clear,320,2013-02-23 08:35:00
2:55 AM,29.8,25.5,84,30.05,10.0,NW,4.6,-,N/A,,Clear,310,2013-02-23 08:55:00
3:15 AM,29.3,25.5,86,30.05,10.0,Calm,Calm,-,N/A,,Clear,0,2013-02-23 09:15:00
3:35 AM,29.1,25.5,86,30.04,10.0,NW,4.6,-,N/A,,Clear,310,2013-02-23 09:35:00
3:55 AM,29.1,25.3,86,30.05,10.0,NW,3.5,-,N/A,,Clear,320,2013-02-23 09:55:00
4:15 AM,28.9,25.2,86,30.05,10.0,NW,4.6,-,N/A,,Clear,320,2013-02-23 10:15:00
4:35 AM,28.6,24.8,86,30.04,10.0,NNW,4.6,-,N/A,,Clear,330,2013-02-23 10:35:00
4:55 AM,28.6,24.3,84,30.05,10.0,NNW,5.8,-,N/A,,Clear,330,2013-02-23 10:55:00
5:15 AM,28.2,24.1,84,30.05,10.0,NNW,4.6,-,N/A,,Clear,340,2013-02-23 11:15:00
5:35 AM,27.9,23.9,85,30.06,10.0,Calm,Calm,-,N/A,,Clear,0,2013-02-23 11:35:00
5:55 AM,27.5,23.9,86,30.06,10.0,Calm,Calm,-,N/A,,Clear,0,2013-02-23 11:55:00
6:15 AM,26.6,23.5,88,30.05,10.0,Calm,Calm,-,N/A,,Clear,0,2013-02-23 12:15:00
6:35 AM,26.4,23.5,89,30.05,10.0,Calm,Calm,-,N/A,,Clear,0,2013-02-23 12:35:00
6:55 AM,26.6,23.4,88,30.06,10.0,Calm,Calm,-,N/A,,Clear,0,2013-02-23 12:55:00
7:15 AM,27.0,23.7,88,30.05,10.0,Calm,Calm,-,N/A,,Clear,0,2013-02-23 13:15:00
7:35 AM,28.4,24.6,86,30.05,10.0,North,3.5,-,N/A,,Clear,10,2013-02-23 13:35:00
7:55 AM,29.3,23.9,80,30.07,10.0,NNE,4.6,-,N/A,,Clear,20,2013-02-23 13:55:00
8:15 AM,30.2,23.4,76,30.07,10.0,North,5.8,-,N/A,,Clear,10,2013-02-23 14:15:00
8:55 AM,31.8,23.2,70,30.06,10.0,NNE,4.6,-,N/A,,Clear,20,2013-02-23 14:55:00
9:15 AM,32.0,23.4,70,30.05,10.0,North,5.8,-,N/A,,Clear,350,2013-02-23 15:15:00
9:35 AM,32.4,23.9,71,30.05,10.0,NNE,3.5,-,N/A,,Clear,20,2013-02-23 15:35:00
9:55 AM,33.3,24.1,69,30.05,10.0,Calm,Calm,-,N/A,,Clear,0,2013-02-23 15:55:00
10:15 AM,34.5,23.9,65,30.04,10.0,Calm,Calm,-,N/A,,Clear,0,2013-02-23 16:15:00
10:35 AM,35.4,23.9,63,30.04,10.0,Calm,Calm,-,N/A,,Clear,0,2013-02-23 16:35:00
10:55 AM,35.4,24.3,64,30.04,10.0,Calm,Calm,-,N/A,,Clear,0,2013-02-23 16:55:00
11:15 AM,37.0,25.5,63,30.05,10.0,NNE,3.5,-,N/A,,Clear,20,2013-02-23 17:15:00
11:35 AM,38.1,24.4,58,30.04,10.0,Calm,Calm,-,N/A,,Clear,0,2013-02-23 17:35:00
11:55 AM,39.0,24.3,55,30.03,10.0,SW,3.5,-,N/A,,Clear,230,2013-02-23 17:55:00
12:15 PM,39.2,24.1,55,30.02,10.0,Calm,Calm,-,N/A,,Clear,0,2013-02-23 18:15:00
12:35 PM,40.6,24.8,53,30.01,10.0,WSW,6.9,-,N/A,,Clear,240,2013-02-23 18:35:00
12:55 PM,40.5,23.7,51,30.00,10.0,West,5.8,-,N/A,,Clear,280,2013-02-23 18:55:00
1:15 PM,41.0,23.2,49,29.99,10.0,West,3.5,-,N/A,,Clear,270,2013-02-23 19:15:00
1:35 PM,41.4,25.0,52,29.98,10.0,SW,6.9,-,N/A,,Clear,230,2013-02-23 19:35:00
1:55 PM,42.1,24.8,50,29.97,10.0,West,6.9,-,N/A,,Clear,270,2013-02-23 19:55:00
2:15 PM,41.9,24.3,50,29.97,10.0,SW,6.9,-,N/A,,Clear,220,2013-02-23 20:15:00
2:35 PM,42.4,25.0,50,29.97,10.0,SW,6.9,-,N/A,,Clear,220,2013-02-23 20:35:00
2:55 PM,42.8,24.6,49,29.97,10.0,WSW,8.1,-,N/A,,Clear,240,2013-02-23 20:55:00
3:15 PM,43.0,24.6,48,29.98,10.0,WSW,6.9,-,N/A,,Clear,250,2013-02-23 21:15:00
3:35 PM,43.2,25.0,49,29.98,10.0,WSW,6.9,-,N/A,,Clear,250,2013-02-23 21:35:00
3:55 PM,43.2,24.8,48,29.97,10.0,West,5.8,-,N/A,,Clear,260,2013-02-23 21:55:00
4:15 PM,42.8,24.1,48,29.97,10.0,West,4.6,-,N/A,,Clear,260,2013-02-23 22:15:00
4:35 PM,43.0,24.8,49,29.97,10.0,West,4.6,-,N/A,,Clear,260,2013-02-23 22:35:00
4:55 PM,42.3,24.8,50,29.97,10.0,West,3.5,-,N/A,,Clear,260,2013-02-23 22:55:00
5:15 PM,41.2,24.8,52,29.97,10.0,West,4.6,-,N/A,,Clear,260,2013-02-23 23:15:00
5:35 PM,40.5,24.8,54,29.97,10.0,West,3.5,-,N/A,,Clear,270,2013-02-23 23:35:00
5:55 PM,40.5,25.2,54,29.98,10.0,Calm,Calm,-,N/A,,Clear,0,2013-02-23 23:55:00
6:15 PM,39.6,26.2,59,29.99,10.0,West,3.5,-,N/A,,Clear,270,2013-02-24 00:15:00
6:35 PM,39.4,27.1,62,29.99,10.0,Calm,Calm,-,N/A,,Clear,0,2013-02-24 00:35:00
6:55 PM,37.6,27.1,66,30.00,10.0,Calm,Calm,-,N/A,,Clear,0,2013-02-24 00:55:00
7:15 PM,38.1,26.2,62,30.01,10.0,Calm,Calm,-,N/A,,Clear,0,2013-02-24 01:15:00
7:35 PM,37.6,25.5,62,30.00,10.0,Calm,Calm,-,N/A,,Clear,0,2013-02-24 01:35:00
7:55 PM,35.1,25.7,69,30.00,10.0,Calm,Calm,-,N/A,,Clear,0,2013-02-24 01:55:00
8:15 PM,34.5,25.9,71,30.01,10.0,NW,3.5,-,N/A,,Clear,320,2013-02-24 02:15:00
8:35 PM,34.3,25.7,71,30.03,10.0,NW,5.8,-,N/A,,Clear,320,2013-02-24 02:35:00
9:15 PM,34.2,25.3,70,30.02,10.0,North,5.8,-,N/A,,Clear,350,2013-02-24 03:15:00
9:35 PM,33.4,24.8,71,30.02,10.0,North,4.6,-,N/A,,Clear,360,2013-02-24 03:35:00
9:55 PM,32.7,25.2,74,30.02,10.0,North,3.5,-,N/A,,Clear,350,2013-02-24 03:55:00
10:15 PM,32.0,24.8,75,30.01,10.0,Calm,Calm,-,N/A,,Clear,0,2013-02-24 04:15:00
10:35 PM,30.9,24.6,77,30.03,10.0,Calm,Calm,-,N/A,,Clear,0,2013-02-24 04:35:00
10:55 PM,30.7,24.8,79,30.01,10.0,Calm,Calm,-,N/A,,Clear,0,2013-02-24 04:55:00
11:15 PM,28.9,24.4,83,30.03,10.0,Calm,Calm,-,N/A,,Clear,0,2013-02-24 05:15:00
11:35 PM,29.3,24.8,83,30.01,10.0,Calm,Calm,-,N/A,,Clear,0,2013-02-24 05:35:00
11:55 PM,28.9,24.6,84,30.01,10.0,Calm,Calm,-,N/A,,Clear,0,2013-02-24 05:55:00